Wind_Speed
10 9 9 9 9 9 9 9 10 10 10 10 11 11 12 12 12 13 13 13 13 14 14 14 14 15 15 15 15 15 14 14 15 14 15 16 16 15 15 14 14 13 12 12 12 12 13 13 13 14 15 15 15 14 13 14 13 15 15 14 14 13 9 6 8 11 14 18 18 18 19 22 24 25 27 27 25 21 18 15 14 17 20 19 17 17 19 20
12 11 11 11 11 11 11 12 12 12 12 13 13 14 14 14 15 15 15 15 16 16 16 16 16 16 17 17 17 17 16 16 16 16 16 17 16 14 13 12 13 13 13 14 14 14 15 15 15 15 16 16 17 16 15 15 15 16 17 18 18 16 12 11 13 14 18 22 22 21 22 24 25 24 26 29 27 24 21 18 15 17 19 19 18 18 22 23
13 13 13 13 13 13 13 14 14 14 15 15 15 16 16 16 17 17 17 17 17 18 18 18 18 18 18 18 19 18 17 16 17 18 18 16 13 12 12 13 14 15 16 16 16 16 15 16 17 16 17 17 18 19 18 17 18 18 19 21 20 18 16 15 14 15 17 23 25 24 24 25 25 24 26 28 29 27 23 19 18 18 18 18 16 17 24 28
15 15 15 15 15 15 15 16 16 16 17 17 17 17 17 18 18 18 18 18 18 18 18 18 18 19 19 19 19 19 18 18 18 17 16 14 14 15 16 16 17 17 17 17 16 16 15 16 17 16 17 17 17 20 20 19 19 19 22 24 21 19 20 19 16 17 20 25 27 25 25 26 25 25 27 30 32 30 24 21 20 19 20 20 20 21 25 29
16 16 16 16 17 17 17 18 18 18 19 19 18 18 18 18 18 18 18 18 18 19 19 19 19 20 20 20 20 20 19 17 16 16 16 17 18 18 18 18 18 18 17 17 16 15 15 15 16 17 18 18 17 19 21 21 21 22 24 24 23 22 24 24 20 21 24 27 29 26 26 28 28 27 27 30 33 31 25 23 22 20 21 23 25 27 27 28
18 18 18 18 19 19 19 19 20 20 20 20 19 19 19 19 19 19 19 19 19 19 20 20 20 20 20 21 21 21 19 14 14 18 19 20 20 18 18 18 17 17 16 16 16 16 16 16 17 17 18 20 19 20 20 19 20 25 27 25 25 25 26 25 23 26 28 29 29 28 28 29 29 28 26 29 33 31 27 25 23 21 21 23 26 28 28 27
20 20 20 20 20 21 21 21 21 21 21 20 20 20 20 20 19 20 19 20 20 20 20 20 21 21 21 22 21 21 21 15 14 19 19 18 18 17 17 16 16 16 16 17 17 18 18 19 19 18 20 21 21 20 17 16 19 25 30 29 27 26 26 26 26 29 31 29 30 30 29 28 28 28 28 30 30 28 27 25 23 21 21 22 24 27 27 27
21 21 21 22 22 22 21 22 22 22 22 22 21 21 21 21 21 21 21 21 21 21 21 21 21 21 22 22 22 22 21 15 13 17 18 17 17 17 17 17 17 17 17 18 18 19 20 20 20 20 21 22 20 18 17 20 23 25 30 30 29 29 29 28 29 31 31 30 30 31 31 27 24 26 30 30 27 24 25 25 23 22 23 24 24 26 28 28
22 22 22 22 22 22 22 23 23 23 23 23 23 23 23 22 22 22 22 22 21 22 21 22 22 22 23 22 24 24 20 16 14 15 16 17 18 19 19 20 20 20 20 21 20 20 21 19 19 20 23 22 21 21 21 24 26 27 29 30 30 32 33 31 31 32 32 32 31 32 32 27 22 23 29 28 25 25 26 27 25 24 23 24 26 27 28 29
24 24 24 24 24 24 24 24 24 24 24 24 24 24 23 23 23 23 23 22 22 23 22 23 23 23 24 24 26 26 21 18 18 18 18 19 20 21 22 21 22 23 23 23 22 21 22 21 22 24 25 25 24 24 24 25 28 29 30 32 33 33 33 32 33 32 32 32 29 29 29 26 23 25 29 27 26 28 28 28 27 26 25 24 25 27 28 29
25 25 25 25 25 25 25 25 25 25 25 25 25 24 24 24 24 24 23 24 23 23 24 24 24 25 25 26 27 27 23 21 21 20 20 20 21 22 22 22 23 24 24 25 25 24 24 24 24 24 24 26 27 26 27 28 29 31 32 33 33 33 33 32 33 32 30 30 27 26 26 26 26 27 30 30 28 27 27 28 26 26 27 25 25 26 27 28
25 25 26 25 25 25 25 25 25 25 25 25 25 25 25 24 24 24 24 24 24 24 24 24 25 25 26 27 27 25 24 24 23 22 22 22 22 23 23 24 24 25 25 25 26 25 24 24 25 24 24 26 28 27 28 28 29 31 33 34 34 35 35 32 32 30 27 26 25 25 25 25 25 28 31 29 27 28 29 31 29 27 27 28 28 27 28 28
26 26 26 26 26 25 26 26 25 25 25 25 25 25 25 24 24 24 24 24 24 24 24 24 25 26 27 28 27 25 26 26 25 24 23 23 24 24 24 25 25 25 25 25 26 25 23 23 24 24 23 25 26 26 28 28 29 32 32 33 34 34 34 31 27 25 24 23 22 22 23 23 26 29 31 27 28 30 30 32 33 30 28 27 28 28 28 28
26 26 26 26 26 26 26 26 26 26 26 26 25 25 25 25 25 25 25 25 25 25 25 26 26 27 29 29 27 28 28 28 28 27 25 25 25 25 25 25 24 24 25 24 23 23 22 22 23 23 22 23 24 24 28 28 28 30 31 29 27 28 31 27 20 20 22 22 21 20 23 25 26 24 23 25 29 32 32 33 32 31 29 27 26 27 28 28
27 27 27 27 27 27 27 27 27 27 27 27 27 27 28 28 28 28 27 27 27 27 27 28 28 29 31 30 30 31 30 29 29 28 26 25 24 24 23 23 23 23 24 23 23 23 24 24 23 21 20 20 22 24 27 27 26 28 27 26 24 24 26 22 16 16 19 21 22 21 23 25 26 23 23 28 32 32 32 31 29 27 26 25 25 26 27 27
29 29 29 29 29 29 29 29 29 29 29 29 29 30 30 30 30 30 29 29 29 29 29 29 29 30 31 30 30 30 30 29 28 27 27 27 26 26 25 25 26 25 26 26 26 26 25 23 21 21 22 21 23 26 25 23 25 25 23 24 23 22 23 18 13 12 15 21 25 27 28 28 30 28 26 31 34 31 30 28 25 23 22 23 23 23 23 23
30 30 30 30 30 30 30 30 30 30 30 30 30 31 31 31 30 30 30 29 29 29 29 29 29 30 31 29 29 30 29 29 28 27 27 26 26 25 23 23 22 22 23 22 22 22 21 23 24 25 25 24 24 24 21 19 23 23 20 22 22 21 22 20 18 16 18 25 29 32 34 34 33 28 26 31 32 30 29 28 26 24 22 20 17 16 17 20
30 30 30 30 30 29 29 29 29 29 29 29 29 29 29 29 29 29 29 28 27 27 27 27 27 28 26 24 26 27 27 26 25 24 23 23 24 23 23 23 22 22 22 21 22 24 24 27 30 28 27 27 26 25 24 23 24 23 21 23 24 24 25 25 27 27 28 30 30 30 33 33 31 28 29 29 28 29 29 27 26 23 18 13 11 14 17 22
29 28 28 28 27 27 27 27 27 27 28 28 28 28 28 28 28 28 28 27 27 26 25 26 26 25 23 23 25 26 27 27 27 26 26 27 28 28 29 29 28 27 28 29 29 29 29 30 30 28 27 27 26 26 27 27 25 23 23 25 26 28 28 27 30 32 30 30 29 28 30 31 30 31 31 30 28 29 26 23 19 14 11 11 12 18 23 27
28 27 27 26 26 26 26 26 26 27 27 27 27 27 28 28 27 28 29 28 27 26 25 26 28 28 26 27 29 29 29 29 30 30 29 30 30 30 31 32 31 31 32 32 29 29 29 28 27 28 27 26 25 24 24 23 23 23 25 26 27 29 29 29 32 31 27 27 29 27 29 31 31 33 36 32 25 20 16 15 11 7 11 15 19 25 29 32
27 26 26 25 25 26 26 26 26 26 27 27 27 27 28 28 28 29 30 30 29 28 28 27 28 30 29 29 30 29 28 30 31 31 29 30 30 31 33 32 31 32 30 27 25 25 27 26 27 26 24 23 22 20 19 21 24 26 28 30 30 29 31 33 30 23 18 22 26 26 29 31 32 37 33 22 14 11 8 7 8 12 17 21 26 31 34 37
27 27 26 26 26 26 26 27 27 27 27 27 28 28 28 29 29 30 32 33 32 30 30 29 28 30 28 30 31 29 29 30 31 31 29 30 32 32 34 33 31 32 27 23 23 23 25 25 24 21 18 18 19 18 18 20 23 27 29 30 31 29 30 29 21 14 12 18 24 28 31 32 32 30 18 7 6 5 3 7 16 23 25 27 32 36 38 40
29 28 28 27 27 28 27 28 29 28 27 27 28 28 28 29 30 31 32 34 34 30 29 29 28 29 27 30 31 28 30 30 30 32 30 31 34 32 33 33 31 29 23 21 23 24 24 21 16 13 14 15 15 16 18 20 22 25 24 25 27 25 24 22 18 16 18 23 28 29 29 29 26 17 4 3 5 4 7 17 25 26 27 29 33 37 38 36
30 29 29 28 27 28 28 28 28 27 27 27 27 27 28 28 28 29 29 32 34 30 28 28 28 28 28 30 30 27 29 30 30 34 31 31 35 33 33 32 29 27 24 22 23 25 25 20 16 15 15 16 18 18 18 21 23 21 20 21 22 21 20 22 22 23 27 28 26 22 22 22 16 6 3 9 11 13 20 26 25 23 24 25 28 32 32 29
29 29 29 28 27 27 26 27 27 26 26 26 25 25 25 25 25 26 26 29 32 31 28 28 28 27 27 28 28 27 29 30 31 33 31 30 33 33 32 30 27 24 21 18 19 22 23 21 19 18 16 16 19 18 14 16 20 19 17 17 18 18 20 22 24 26 27 23 16 14 14 13 9 9 16 19 17 18 24 26 23 22 22 22 24 27 27 24
29 29 28 28 26 25 25 26 26 25 25 24 23 23 22 22 22 23 24 25 30 29 23 21 20 19 17 18 21 22 23 25 26 27 27 27 28 28 25 24 23 20 17 15 17 21 21 18 17 15 12 10 12 11 7 9 16 18 16 15 16 18 20 23 25 25 22 18 17 16 13 15 17 19 22 20 11 14 21 24 24 23 22 23 24 25 25 21
30 29 28 27 26 24 25 26 25 25 25 24 22 21 20 21 21 21 20 18 19 17 11 10 11 10 10 9 11 13 13 13 14 14 15 15 16 16 15 16 15 13 13 14 15 16 14 11 10 9 8 8 9 9 6 7 13 17 16 16 18 20 22 23 24 25 25 26 27 20 13 20 23 19 18 12 7 15 19 20 23 24 23 23 23 23 21 16
29 29 29 28 27 26 27 28 27 26 26 25 23 21 21 21 21 19 14 8 6 5 4 9 9 7 9 10 9 9 9 7 5 5 5 6 6 5 6 9 9 8 9 10 11 11 11 11 11 11 12 12 12 9 7 10 14 17 18 19 21 21 22 24 25 26 26 23 20 13 8 13 17 16 14 5 12 15 18 18 21 23 22 22 19 17 14 10
29 30 30 29 29 29 29 30 29 28 27 26 24 23 22 22 21 17 9 5 4 3 6 10 10 8 11 13 10 9 10 8 6 5 5 5 4 3 3 4 6 8 10 11 12 11 13 15 14 15 16 14 13 11 13 15 16 18 20 21 22 22 24 23 22 22 18 14 15 15 11 11 11 14 7 3 11 13 16 17 18 21 21 18 12 9 10 10
30 31 31 31 32 31 31 31 30 29 28 26 25 24 23 22 19 12 7 7 5 5 7 9 11 13 13 14 11 8 8 7 6 6 6 5 5 4 5 6 8 10 11 14 16 14 15 16 14 14 14 13 15 16 17 18 18 20 21 22 24 24 22 18 16 13 9 7 10 10 12 15 6 6 3 3 7 12 16 18 19 20 17 11 8 7 9 12
28 28 29 30 30 30 31 32 32 31 30 28 27 26 23 21 17 11 7 10 10 8 10 11 12 14 14 13 11 8 8 7 7 6 6 7 8 9 8 9 10 11 12 15 16 14 13 14 13 13 14 16 19 19 18 18 17 18 19 20 21 17 10 9 9 6 3 5 6 3 6 14 9 7 9 12 15 19 22 23 23 22 17 12 10 11 14 17
26 27 28 28 27 25 26 28 28 28 29 28 25 23 21 17 18 17 11 8 8 8 12 14 14 16 16 13 11 9 8 7 8 8 9 10 11 13 13 12 12 12 13 14 14 15 18 20 20 21 22 22 21 18 16 14 12 11 13 14 11 7 4 4 4 3 5 5 5 2 3 9 15 20 22 22 23 23 19 19 21 21 21 18 17 18 19 21
29 29 29 29 28 25 24 24 24 24 24 23 19 19 21 15 13 20 19 13 9 6 8 9 11 15 17 14 10 9 8 9 10 12 13 14 15 17 17 17 17 15 12 13 14 17 19 20 19 19 20 16 12 10 10 10 10 10 13 12 6 3 3 3 3 3 7 5 6 13 13 11 17 18 14 14 18 22 22 21 22 21 23 23 23 24 26 27
30 29 28 27 25 24 23 23 23 22 20 19 18 18 20 15 9 12 18 21 19 13 9 7 8 12 14 14 12 10 12 13 15 18 19 21 23 24 24 22 19 15 14 14 12 11 11 12 11 9 10 10 9 10 11 12 14 15 17 15 12 11 7 5 4 3 6 10 17 23 15 8 10 7 6 9 12 20 24 24 24 24 25 26 27 29 30 30
28 26 24 21 19 19 20 20 22 22 20 20 19 20 23 21 16 14 16 19 21 19 15 11 11 12 12 15 15 16 17 18 21 25 26 25 24 23 22 17 13 12 13 12 9 6 8 11 12 9 9 11 13 13 11 12 12 12 14 15 16 18 16 12 12 14 16 14 17 22 19 18 21 20 23 25 25 30 30 30 32 32 31 31 31 33 33 31
28 26 24 21 19 20 21 22 22 23 24 24 22 26 32 30 23 17 15 16 19 21 20 16 16 17 17 19 20 21 22 23 23 23 22 22 21 22 22 17 16 18 18 18 16 12 11 12 13 10 8 10 12 12 12 14 12 9 12 16 16 17 18 16 15 19 19 11 11 20 23 26 27 26 26 24 23 28 28 29 33 34 32 32 33 34 32 28
29 28 27 23 22 22 23 24 24 25 28 28 29 33 37 36 30 22 15 15 18 19 20 18 16 16 16 16 16 17 18 19 19 18 18 19 17 17 19 17 19 22 21 22 20 16 16 19 21 20 16 16 18 18 18 18 17 16 19 21 18 14 15 16 10 8 9 6 9 18 24 26 22 16 18 19 19 25 28 27 29 29 30 32 33 32 27 22
31 31 29 24 22 23 24 24 23 26 28 30 34 37 37 36 34 28 23 21 20 19 20 20 18 16 16 16 13 12 14 15 14 14 16 17 14 13 13 13 17 20 20 21 19 16 17 19 23 24 20 17 19 19 17 15 17 20 22 22 20 13 12 13 8 3 5 5 5 13 19 26 25 18 18 22 21 23 26 25 24 26 28 30 30 26 21 17
31 31 29 24 22 23 23 23 23 24 28 32 36 38 38 38 34 30 29 29 28 27 26 25 22 19 18 19 16 14 16 17 15 14 15 15 14 13 13 14 16 17 17 17 16 16 16 13 15 20 18 14 16 18 17 15 17 19 20 21 23 20 17 17 14 11 9 6 6 9 11 19 26 23 22 22 17 16 19 20 20 22 24 25 23 19 17 17
30 29 28 25 23 23 23 24 24 25 29 35 38 38 39 40 38 33 32 32 31 30 29 28 24 22 23 24 22 19 19 19 17 17 18 16 14 12 12 13 14 14 13 13 14 16 17 14 15 21 23 20 20 21 17 14 14 15 16 18 19 20 20 19 20 22 17 7 4 6 7 15 23 22 20 20 16 15 17 16 16 17 18 18 17 17 19 19
28 29 29 25 23 24 24 26 28 30 34 37 38 38 38 39 41 38 34 34 33 29 28 26 24 25 27 26 25 24 22 22 22 21 22 22 20 17 17 18 18 18 18 17 18 18 17 16 18 25 29 29 28 24 18 15 16 17 16 16 17 18 18 15 13 22 24 16 11 9 7 16 26 28 23 19 17 16 14 12 13 14 15 17 18 21 23 24
27 28 28 26 25 25 26 29 31 33 37 39 38 37 36 37 39 38 36 36 35 29 27 27 28 29 29 27 26 24 22 23 24 24 25 25 23 21 21 22 21 21 20 18 18 20 19 17 20 25 30 33 34 31 26 24 24 24 22 24 24 22 23 17 9 13 19 18 18 15 8 13 26 33 31 28 26 23 17 14 16 19 20 23 25 27 30 33
25 26 28 27 27 27 28 31 33 34 38 41 39 37 36 36 37 38 37 36 34 31 30 30 31 31 30 29 28 27 25 24 26 27 27 26 25 25 26 26 25 24 23 20 19 21 20 17 18 21 24 29 33 32 28 22 20 21 22 24 26 25 26 23 17 16 15 14 18 14 5 11 23 27 28 29 29 26 25 27 30 32 33 34 36 39 43 46
27 29 30 30 29 30 32 35 36 37 40 41 40 40 39 39 39 39 38 37 35 35 34 32 29 28 28 27 27 29 28 25 25 27 28 27 25 26 27 27 26 26 24 21 19 18 15 12 10 8 9 15 20 21 18 13 11 13 15 18 22 24 25 23 21 21 14 13 18 12 5 15 23 22 24 28 31 34 37 39 42 44 46 48 49 50 51 52
30 32 33 33 33 35 37 38 37 38 40 40 40 40 40 39 40 39 37 36 34 33 32 31 30 29 28 28 28 29 28 26 24 23 24 24 24 26 27 26 26 26 24 23 22 20 18 16 14 10 5 6 10 13 12 9 8 11 14 17 19 22 25 25 24 22 15 14 18 16 16 26 31 31 35 37 37 39 41 43 47 49 52 54 54 53 52 51
35 36 36 35 35 38 40 39 37 39 40 39 38 40 40 39 37 35 32 31 31 29 29 29 29 28 27 27 28 28 28 29 27 25 25 23 22 23 24 25 24 24 23 24 23 22 22 23 25 22 19 19 21 24 24 21 20 22 24 26 28 30 33 33 28 26 23 19 22 29 34 38 40 45 47 42 38 38 41 45 49 51 52 52 51 50 49 48
38 39 39 37 34 35 38 39 39 41 41 37 37 38 37 35 32 29 28 28 27 27 29 30 29 28 27 28 28 28 27 26 26 27 28 26 24 25 26 27 26 25 26 25 24 24 23 24 27 25 22 23 25 27 29 27 26 26 27 33 38 38 39 36 32 31 28 21 24 35 39 37 40 46 47 45 44 45 47 48 49 49 49 48 48 47 47 47
38 38 38 38 36 35 38 39 38 39 40 39 38 37 33 29 25 25 26 26 25 26 28 30 31 30 29 28 27 26 24 22 22 24 25 24 23 24 26 27 27 28 28 25 25 24 20 23 27 24 21 25 26 27 28 27 26 27 29 34 39 41 42 40 36 35 31 25 29 37 40 40 45 48 48 48 48 48 48 47 45 44 43 43 44 44 44 44
38 37 36 37 40 41 41 40 35 33 35 37 38 38 35 29 23 22 24 26 26 27 28 29 29 27 27 28 27 26 24 22 22 22 24 24 24 25 26 26 26 28 28 25 24 22 20 24 27 23 23 28 29 28 26 23 23 28 32 36 39 43 44 41 40 40 38 36 38 41 42 45 47 46 45 44 43 43 43 42 41 40 39 40 41 41 41 41
37 38 37 37 39 40 41 40 37 33 32 32 35 38 37 33 28 24 24 26 29 29 28 28 28 27 27 28 28 27 27 27 26 25 25 26 26 25 25 24 25 27 27 26 24 21 21 24 22 19 22 28 32 30 23 20 22 28 34 40 43 45 44 43 44 44 41 40 40 39 40 43 43 41 40 39 38 38 38 37 36 36 37 38 38 38 40 41
36 37 37 38 39 38 37 37 36 34 33 33 36 36 35 35 34 29 26 27 30 30 28 28 28 28 28 28 28 28 29 31 30 28 28 28 28 27 26 25 25 26 27 27 26 25 24 23 24 21 19 27 36 30 21 21 23 27 37 45 47 45 43 43 42 39 38 38 39 37 37 38 36 33 32 34 35 35 34 34 34 35 37 37 38 40 42 41
35 35 36 37 37 37 36 35 34 34 34 35 35 33 32 33 34 32 31 30 31 31 31 30 29 27 26 28 28 28 29 30 30 29 29 30 30 30 30 29 29 31 32 32 30 30 27 24 24 19 16 25 32 26 20 18 15 23 40 46 43 40 39 37 35 33 33 33 33 34 34 31 28 26 29 32 35 35 36 36 38 41 40 38 39 41 41 38
Wind_Direction
266 269 271 272 275 276 278 280 282 285 287 290 292 294 296 297 299 299 299 299 299 299 298 298 299 299 299 299 300 300 302 304 304 305 305 303 306 308 307 307 306 306 307 307 309 310 312 311 312 313 313 314 312 314 314 311 313 309 307 303 298 306 309 288 281 278 274 279 288 294 296 298 303 307 306 305 307 308 303 301 301 294 295 297 294 291 286 280
269 271 273 275 276 278 280 282 284 286 287 289 291 292 294 295 296 296 296 297 297 296 296 297 297 298 298 298 299 299 301 304 303 302 301 301 305 307 307 307 304 304 304 303 304 305 306 305 306 308 306 307 307 306 305 304 304 303 301 296 296 303 300 285 282 279 277 283 290 293 296 297 299 303 302 301 304 306 305 308 306 296 296 297 297 299 291 281
270 271 274 275 276 279 280 282 284 286 288 289 290 292 293 294 294 294 295 295 295 295 296 297 298 299 299 300 301 301 303 303 303 303 301 302 306 307 307 305 303 302 301 300 301 303 303 303 304 305 302 303 305 303 303 302 302 302 295 290 299 307 299 289 287 285 281 285 293 300 301 299 300 301 298 299 302 301 303 308 305 297 296 297 294 291 288 287
268 270 273 274 276 278 279 281 282 284 286 287 288 290 291 292 292 292 293 294 294 295 295 296 298 299 299 300 300 301 303 304 304 303 301 303 304 304 304 302 300 299 298 299 299 300 301 301 302 302 301 303 304 302 303 304 303 298 291 294 304 304 295 291 288 280 278 286 297 303 301 299 299 299 298 300 299 298 302 304 301 298 298 295 287 280 280 286
269 270 272 274 275 277 278 279 281 283 284 285 286 287 288 289 290 290 291 292 292 293 294 295 296 296 297 297 298 299 302 306 306 302 302 302 301 303 302 298 297 297 297 297 298 298 298 298 298 300 300 301 301 299 302 305 303 296 294 299 305 304 299 300 297 287 285 292 299 302 301 299 299 299 301 301 297 297 300 300 297 294 289 284 279 277 277 280
271 272 273 274 275 276 278 279 280 281 282 284 284 285 286 286 287 287 288 289 289 290 291 293 293 293 294 293 294 296 295 299 302 298 297 297 299 301 297 295 295 295 296 297 297 297 298 297 296 298 297 297 297 297 300 301 298 295 296 299 301 302 299 299 295 290 295 298 299 301 300 299 300 302 302 297 294 298 304 303 298 290 280 276 275 276 278 278
272 273 274 275 275 276 277 278 279 280 281 282 282 283 283 283 283 284 284 285 286 287 287 288 289 289 290 289 290 290 289 293 297 292 292 294 296 297 295 295 294 294 296 295 296 296 297 295 296 296 293 293 296 298 298 290 282 283 292 298 299 296 292 292 290 291 297 299 299 300 299 299 303 303 298 292 294 304 308 304 300 293 284 279 278 279 279 279
271 272 273 274 275 276 276 277 278 279 280 280 281 282 282 282 282 282 283 283 284 284 285 285 286 287 287 288 289 286 288 297 293 286 291 294 294 294 293 293 292 293 293 292 293 293 291 292 294 293 289 292 295 292 285 280 279 281 290 297 298 296 296 298 296 296 299 302 304 302 300 303 306 301 293 295 304 310 305 300 300 296 291 287 282 281 281 281
270 271 272 272 273 274 275 276 277 278 279 280 280 281 282 282 283 283 283 284 284 285 285 286 286 287 287 288 289 286 291 299 293 287 291 291 290 290 290 291 290 290 290 289 290 288 289 291 288 285 287 291 290 286 282 281 284 287 289 291 293 295 298 300 298 298 301 304 305 301 301 306 309 300 295 303 314 310 303 301 302 300 295 291 289 287 286 285
271 272 272 273 274 274 275 276 277 278 278 279 280 281 282 282 283 284 284 285 286 286 287 287 287 287 287 288 287 287 293 297 292 291 289 287 287 287 287 288 288 289 289 289 288 287 287 285 282 284 288 289 286 284 284 282 285 287 285 287 291 293 297 298 298 302 304 303 302 298 299 307 309 301 300 311 315 308 304 302 303 301 296 293 291 291 291 290
271 272 273 274 275 275 276 277 278 278 279 280 280 281 282 282 283 284 284 285 285 286 286 286 287 286 286 286 285 288 294 292 290 290 288 287 287 286 286 287 286 287 288 288 288 286 285 283 282 284 284 284 285 286 286 285 286 287 287 289 293 296 297 298 301 307 307 304 304 301 299 305 306 302 307 314 314 311 307 303 300 297 296 295 293 293 293 292
270 271 273 274 275 276 277 278 279 279 280 281 281 282 282 283 283 283 283 283 284 284 284 284 285 285 286 284 285 290 292 290 290 289 288 288 287 286 286 286 285 285 285 285 285 285 285 284 282 280 278 280 283 285 286 288 289 289 292 294 298 300 298 303 310 311 310 308 307 301 292 299 307 310 314 317 316 315 313 310 306 302 302 303 302 300 296 294
270 271 272 273 274 276 276 278 279 279 280 281 281 282 282 282 281 281 282 282 283 282 282 283 283 284 284 283 286 288 288 289 289 289 290 289 287 287 286 285 285 284 283 282 283 284 282 280 279 278 279 280 283 285 286 288 288 289 294 297 300 303 303 313 320 317 313 305 299 294 281 289 308 315 318 320 317 315 313 310 309 309 309 307 305 301 297 294
269 270 271 272 273 274 275 276 277 278 279 279 280 280 280 280 280 280 280 280 281 281 282 281 282 282 281 282 285 285 286 287 288 289 289 287 287 287 285 285 284 283 282 281 280 281 279 278 278 278 279 281 287 287 286 289 288 293 298 298 301 302 307 321 325 314 311 298 296 293 279 291 311 316 314 312 311 310 307 306 308 309 308 306 302 298 295 293
268 269 270 271 271 272 273 274 275 276 277 277 278 278 278 278 278 278 279 279 279 280 280 280 280 281 280 281 282 283 284 285 287 288 288 288 287 285 285 284 282 281 279 279 277 277 277 278 276 278 280 284 289 288 288 290 291 295 294 292 300 297 300 322 323 305 304 298 299 295 285 296 308 306 302 303 306 308 307 307 308 308 307 306 302 298 297 297
268 269 270 270 271 271 272 273 274 275 276 277 277 278 278 278 278 278 278 278 278 278 278 279 279 279 280 281 281 281 282 283 285 285 286 287 285 284 283 280 279 279 277 276 276 274 275 275 274 278 282 286 289 289 291 292 290 293 288 287 299 297 298 314 312 301 304 301 301 299 297 298 301 304 306 308 312 313 312 312 311 311 310 306 301 299 299 296
268 268 269 270 271 272 273 274 275 275 276 277 278 278 279 278 279 278 278 278 277 278 277 277 278 278 279 280 280 280 280 282 283 284 284 284 284 284 282 280 279 278 276 274 272 270 270 274 276 279 283 285 285 284 281 280 284 291 291 287 291 292 294 297 288 287 294 295 296 298 298 298 302 305 304 308 314 314 312 314 316 314 310 305 303 303 298 290
267 268 269 270 272 273 274 274 275 275 276 276 277 277 278 278 278 277 277 277 277 277 278 278 277 278 279 279 279 279 281 282 281 282 282 281 281 280 281 281 279 276 273 269 267 268 270 276 279 279 281 281 282 278 271 274 283 287 287 285 285 285 285 286 284 287 291 291 291 291 290 293 295 294 297 306 312 311 311 313 313 309 307 309 301 292 288 289
266 267 268 270 271 272 272 273 273 274 275 276 276 276 277 277 277 277 276 276 276 278 279 278 276 275 276 277 276 276 279 279 279 278 277 278 277 277 277 276 275 274 271 270 271 272 273 276 275 274 277 281 286 285 281 286 291 288 285 283 283 283 282 285 288 293 297 293 290 287 285 288 288 291 304 313 313 311 311 306 301 301 311 313 295 287 290 295
266 266 267 268 269 269 270 271 272 273 274 275 275 276 276 277 278 279 277 276 276 276 276 276 277 276 274 274 272 274 275 275 275 275 275 275 274 275 273 271 272 271 271 275 277 276 276 274 272 276 283 286 289 288 283 285 286 283 282 279 279 281 282 285 289 296 297 289 287 287 286 289 292 300 312 318 315 307 300 293 288 306 307 295 291 293 297 300
265 265 265 265 266 267 268 269 271 271 272 273 275 276 277 278 280 280 280 279 277 277 276 275 276 276 276 275 271 272 273 271 271 271 272 273 273 273 271 270 271 270 273 277 276 276 276 274 279 288 294 294 291 285 271 267 269 269 271 275 278 280 283 288 294 302 298 287 287 289 291 293 300 311 317 323 323 299 284 289 295 308 303 292 290 293 297 300
264 264 264 264 265 266 267 269 269 270 272 273 275 277 279 280 281 281 282 281 279 279 279 277 275 275 276 275 273 274 271 269 271 271 270 270 269 269 271 271 271 274 279 276 273 275 274 281 293 299 302 296 290 286 277 267 265 268 272 277 280 283 288 291 299 308 295 285 287 293 296 296 307 319 321 329 324 292 296 311 299 296 292 286 285 286 291 294
263 263 264 264 265 267 268 269 269 270 272 273 275 278 279 281 282 282 283 283 282 279 277 278 277 276 275 272 273 275 272 270 270 268 267 265 265 265 269 272 273 277 279 269 273 277 272 283 302 305 302 295 282 276 275 270 266 271 277 280 282 289 293 293 297 292 281 286 294 298 297 299 315 327 330 339 310 265 291 295 291 287 281 277 274 276 281 285
261 262 262 263 265 267 268 269 269 270 271 273 275 277 279 280 281 282 283 285 285 281 279 281 281 280 277 273 272 270 268 266 263 263 263 262 265 266 268 274 276 277 275 266 272 276 273 280 285 278 278 276 268 264 266 267 266 270 275 276 282 292 291 287 290 286 288 297 302 303 298 299 319 331 291 311 295 282 287 284 281 278 272 269 267 269 276 281
260 260 261 262 263 265 267 267 268 269 270 271 273 276 278 279 281 284 286 290 291 289 287 285 284 281 276 271 269 264 260 260 259 261 263 262 266 268 269 273 273 274 276 268 262 264 269 281 285 280 274 266 261 264 270 270 270 273 275 278 283 287 284 285 291 293 299 307 307 310 309 300 299 278 286 301 296 283 278 274 274 272 266 265 268 273 280 285
259 259 260 262 263 264 265 265 267 270 270 270 271 274 277 280 283 286 291 296 296 296 293 286 281 276 271 265 260 257 256 258 258 260 263 262 263 266 268 269 269 269 267 259 250 253 264 278 282 280 278 264 254 265 283 277 273 274 278 289 291 286 285 290 296 297 299 302 297 298 297 285 283 284 297 311 303 267 262 264 266 266 265 265 272 280 284 286
259 259 259 260 263 264 264 266 268 268 267 267 269 272 275 279 282 287 297 301 294 293 289 269 258 252 259 258 248 247 247 252 253 250 255 257 256 259 258 256 262 265 255 247 248 256 268 274 270 272 273 263 261 275 292 284 278 278 284 293 292 291 293 294 296 293 293 296 295 294 278 271 276 291 316 317 259 243 249 258 262 262 267 268 276 286 284 278
260 259 259 259 261 262 263 265 266 264 264 266 267 270 272 274 277 283 295 296 277 286 265 244 236 237 249 239 226 227 224 226 224 220 233 236 233 235 233 236 244 254 254 249 249 257 270 273 276 283 277 273 277 283 289 289 286 287 293 294 289 290 291 293 294 292 297 298 294 292 257 252 273 304 333 292 223 235 242 254 266 267 272 275 280 282 267 246
262 260 259 261 262 263 262 262 263 263 263 264 265 266 267 268 271 272 269 252 242 253 256 246 238 247 246 229 226 231 227 231 230 229 238 230 218 205 211 232 241 257 269 271 268 268 273 276 279 279 277 282 287 291 297 296 292 291 294 292 287 287 288 292 293 291 299 289 279 285 246 228 285 314 336 219 222 234 244 262 277 271 271 273 268 260 244 232
261 260 260 262 264 265 264 263 262 261 261 262 261 261 261 261 259 250 228 230 252 263 255 245 239 246 238 222 228 232 222 230 236 233 235 234 243 249 257 269 268 272 279 283 287 287 281 277 274 274 282 293 293 296 299 295 293 291 290 288 287 291 293 292 289 288 300 272 273 296 247 229 282 327 348 333 274 262 268 281 288 272 259 246 235 243 251 255
256 256 256 257 260 263 263 260 258 258 258 256 255 256 256 253 243 225 219 242 256 264 249 236 230 230 224 217 227 234 226 225 226 236 253 258 262 264 271 282 286 291 294 294 297 295 284 280 284 288 293 299 297 296 293 288 288 286 284 287 293 305 306 280 274 266 265 266 262 314 238 223 221 238 269 301 297 285 279 279 282 269 244 229 243 256 263 269
252 251 251 255 260 262 260 257 255 255 254 252 251 248 241 236 228 218 217 244 259 256 239 231 227 224 224 227 232 235 230 220 225 256 284 284 277 275 279 289 294 296 295 293 292 286 281 282 289 294 293 295 293 287 285 288 291 287 289 295 297 317 322 251 244 224 232 250 233 293 316 241 248 266 277 285 282 275 266 264 273 261 240 242 260 272 280 282
249 251 254 259 262 261 258 258 257 255 256 253 245 230 219 217 226 220 214 220 232 235 231 227 226 228 228 224 213 211 231 248 256 272 288 290 289 287 286 291 293 289 281 278 280 283 286 288 288 289 289 290 284 278 292 300 298 298 299 299 276 269 315 262 254 264 254 255 284 306 314 290 281 288 290 284 271 262 255 258 267 259 246 253 267 278 287 289
249 253 256 257 257 255 254 257 259 258 258 250 235 220 215 218 231 222 216 223 226 227 232 224 220 225 220 211 206 221 253 272 275 279 287 289 288 285 283 286 287 280 271 273 279 278 279 286 285 278 273 270 267 277 289 291 293 295 288 280 260 247 249 259 268 284 283 292 297 296 293 275 278 284 279 284 280 272 266 263 266 266 262 266 274 282 286 284
252 252 249 247 246 248 251 254 258 259 255 246 232 222 223 228 232 231 225 222 220 224 229 228 233 240 233 228 233 244 258 272 279 283 286 283 281 277 274 275 266 253 254 262 276 275 265 274 277 267 253 257 265 266 266 275 285 287 275 263 254 251 252 261 269 275 285 295 290 280 269 264 272 279 281 280 279 278 274 267 267 269 271 274 279 283 282 277
254 247 240 240 244 249 252 251 254 257 257 251 238 230 234 236 233 232 232 221 216 222 230 237 247 252 253 252 252 256 261 268 273 276 275 273 274 270 266 261 249 250 258 262 266 268 264 266 264 254 238 242 254 255 257 272 276 267 265 263 261 263 262 263 268 273 275 277 273 270 273 279 284 291 289 282 279 280 276 269 266 266 269 273 275 276 275 272
248 241 237 240 244 247 250 250 250 253 253 247 239 240 244 242 235 231 230 222 215 222 232 239 245 248 254 256 256 259 261 262 264 263 263 269 273 269 265 260 253 253 257 259 259 254 254 260 260 257 257 256 260 265 266 271 271 262 263 269 272 271 264 259 262 273 263 253 265 268 275 285 287 289 288 287 287 283 279 275 271 268 268 270 270 270 268 266
243 237 237 238 242 247 251 252 252 253 248 238 237 244 248 247 241 234 229 229 229 234 235 234 238 249 256 254 253 259 255 249 249 253 257 258 257 259 260 254 251 251 248 248 249 243 246 260 266 264 263 260 260 267 267 265 268 266 265 270 271 267 260 250 238 243 256 248 260 260 268 277 278 279 285 287 286 280 276 275 273 272 273 270 267 263 258 255
243 239 238 237 241 248 252 255 256 254 245 237 240 246 248 248 245 237 236 239 240 242 239 237 240 248 251 248 247 252 254 250 243 243 250 251 248 256 258 248 245 246 242 238 237 236 237 250 268 265 260 256 256 261 268 272 272 269 266 265 262 259 260 255 248 251 256 258 268 261 259 268 274 279 280 281 285 282 280 277 269 267 267 262 257 253 250 251
242 240 239 238 241 245 250 254 254 249 245 246 249 250 251 252 250 247 247 244 238 237 239 240 243 245 247 248 246 246 251 254 248 241 240 238 237 246 250 245 241 237 231 231 239 247 245 239 252 262 263 266 267 266 273 279 274 267 263 261 259 259 262 263 260 258 257 260 269 265 259 260 267 274 277 282 291 290 286 277 259 254 254 251 251 255 259 264
239 240 241 242 243 244 247 251 250 248 250 254 256 255 257 259 257 256 253 246 240 238 240 243 247 250 250 250 249 248 247 249 248 243 238 236 237 242 247 248 247 244 243 247 252 255 251 242 248 258 264 268 270 268 266 261 259 262 264 264 265 265 263 263 263 258 258 256 252 256 259 256 262 269 275 285 294 289 279 261 251 260 266 267 270 272 275 282
243 246 248 249 248 249 251 253 254 254 255 257 259 259 261 262 261 260 256 249 245 244 247 255 259 255 250 248 248 246 243 244 243 239 238 239 238 239 242 244 246 248 251 254 253 252 253 253 255 260 264 268 271 272 271 266 262 261 261 263 265 264 260 256 255 260 259 255 255 260 257 250 259 265 270 279 283 282 280 274 277 287 288 286 287 287 289 293
258 259 258 256 256 254 253 253 253 253 255 259 262 262 262 261 261 261 257 251 248 251 258 264 264 257 250 248 247 243 241 244 244 241 242 244 242 239 241 245 248 251 253 256 257 259 259 255 255 262 267 270 271 273 276 278 272 262 256 256 256 255 254 251 257 271 270 260 261 264 256 258 263 266 269 275 277 281 291 296 296 298 297 294 292 293 294 296
267 266 263 261 259 254 250 252 252 253 258 262 263 263 262 260 259 259 256 253 253 257 261 262 260 256 253 252 250 246 243 243 246 247 248 247 243 242 244 246 248 251 253 253 253 254 255 247 245 259 278 280 277 276 278 277 262 247 242 241 243 246 249 253 271 282 275 264 267 266 258 265 267 268 271 276 282 288 293 295 295 296 297 296 297 298 299 299
264 262 262 260 257 254 252 254 254 255 259 260 260 262 263 261 260 259 256 253 253 255 256 256 255 255 254 253 250 246 242 239 240 244 246 243 238 243 247 246 247 251 253 253 252 251 251 250 249 247 243 256 266 270 272 271 265 258 253 249 247 251 259 273 288 286 272 273 279 276 275 274 273 275 277 281 287 290 293 294 293 295 297 298 300 302 302 302
258 256 257 255 252 251 253 254 252 251 253 253 255 258 258 258 259 258 255 252 250 249 249 250 251 250 248 246 245 245 243 242 241 242 244 242 240 246 250 251 253 255 256 257 256 255 256 258 259 257 252 251 256 263 267 273 282 284 277 270 264 263 269 278 280 271 269 284 283 273 275 278 279 281 281 283 285 289 293 294 294 295 297 299 299 299 300 299
253 252 254 253 249 249 251 250 247 247 248 247 249 253 255 255 253 251 251 250 247 245 245 247 247 245 243 243 244 246 246 244 243 244 246 247 250 253 255 258 260 260 260 261 261 261 262 263 264 264 260 260 262 265 267 271 278 281 278 274 272 272 273 272 268 266 272 281 277 273 277 280 280 281 283 285 288 292 294 294 295 296 296 297 296 295 295 294
249 248 250 250 247 248 250 252 251 249 247 244 243 246 249 249 245 242 243 246 245 242 242 243 243 244 244 244 243 243 243 241 239 243 246 248 249 250 253 258 261 262 263 264 264 265 264 264 268 269 265 265 265 266 267 268 271 273 271 270 273 274 273 270 268 271 271 267 268 275 278 278 280 283 285 288 291 294 294 294 294 294 292 291 289 288 288 289
245 243 243 245 246 248 250 253 254 250 247 244 241 241 241 238 235 234 237 242 244 241 239 240 241 242 242 242 240 238 237 236 234 235 238 242 244 247 250 253 256 260 262 261 262 265 267 272 276 277 274 274 274 271 269 268 267 268 268 268 270 271 272 271 271 273 272 268 270 275 277 277 281 286 288 289 292 293 292 290 289 288 286 285 283 283 284 286
240 238 236 238 242 246 248 250 249 246 246 242 239 240 239 233 229 227 229 236 242 242 240 239 240 240 240 240 240 239 238 239 238 237 238 242 244 247 249 250 253 258 261 263 267 269 269 272 275 274 275 277 276 275 275 273 272 270 270 270 271 271 272 273 273 275 276 274 275 276 275 277 282 286 287 287 288 289 286 284 283 282 281 280 280 282 285 287
238 237 236 236 239 242 245 247 247 246 244 240 239 241 240 237 235 229 225 231 238 241 242 242 242 242 243 244 243 241 241 242 243 244 245 248 249 250 252 253 256 260 264 269 274 275 272 269 269 270 271 273 276 279 280 279 277 272 270 273 274 273 274 275 275 275 277 277 278 277 276 279 284 285 283 282 281 280 278 278 280 280 280 281 283 285 288 289
237 236 235 236 238 240 243 244 244 243 243 242 243 243 241 242 241 234 227 229 233 237 240 243 245 243 242 241 241 241 242 244 246 248 250 252 254 255 256 257 259 263 268 272 274 274 270 265 264 265 262 268 275 278 280 282 279 267 269 275 279 278 279 281 280 280 280 279 277 277 278 282 283 279 276 274 273 273 273 276 279 282 284 285 285 287 287 286
Height
3175 3175 3175 3175 3175 3176 3176 3176 3176 3176 3176 3176 3176 3176 3176 3176 3175 3175 3175 3175 3175 3175 3175 3175 3175 3175 3175 3174 3175 3175 3175 3175 3175 3174 3174 3173 3173 3173 3173 3173 3173 3173 3172 3172 3172 3172 3171 3171 3171 3170 3170 3170 3170 3170 3170 3169 3169 3169 3168 3168 3168 3169 3170 3171 3172 3171 3170 3169 3169 3168 3167 3166 3165 3165 3163 3161 3162 3163 3164 3165 3164 3163 3161 3161 3161 3160 3158 3158
3174 3174 3174 3174 3174 3175 3175 3175 3175 3175 3175 3175 3175 3175 3175 3175 3174 3174 3174 3174 3174 3174 3174 3174 3174 3173 3173 3173 3173 3173 3173 3173 3173 3173 3173 3172 3172 3172 3172 3172 3172 3171 3171 3171 3171 3170 3170 3170 3169 3169 3168 3168 3168 3168 3168 3168 3168 3168 3167 3166 3166 3168 3169 3170 3170 3169 3169 3167 3167 3166 3166 3165 3164 3164 3162 3160 3160 3161 3161 3162 3162 3161 3160 3159 3158 3157 3155 3155
3173 3173 3173 3173 3173 3174 3174 3174 3174 3174 3174 3174 3174 3174 3174 3173 3173 3173 3173 3173 3173 3173 3172 3172 3172 3172 3172 3171 3171 3171 3172 3172 3172 3171 3171 3171 3171 3171 3171 3171 3170 3170 3170 3169 3169 3169 3169 3168 3168 3168 3167 3167 3166 3166 3166 3166 3166 3166 3165 3164 3165 3166 3167 3167 3168 3168 3167 3165 3164 3165 3164 3163 3163 3162 3161 3159 3158 3158 3159 3160 3159 3158 3158 3157 3156 3156 3153 3152
3172 3172 3172 3172 3172 3172 3173 3173 3173 3173 3173 3173 3173 3173 3173 3172 3172 3172 3172 3172 3172 3172 3171 3171 3171 3171 3170 3170 3170 3170 3170 3170 3170 3170 3169 3169 3170 3170 3169 3169 3169 3168 3168 3168 3168 3167 3167 3167 3166 3166 3166 3165 3165 3164 3164 3165 3165 3164 3163 3162 3164 3165 3164 3165 3166 3165 3164 3163 3162 3163 3162 3161 3161 3161 3159 3157 3155 3155 3157 3158 3157 3156 3155 3154 3154 3154 3152 3150
3171 3171 3171 3171 3171 3171 3171 3171 3171 3172 3171 3172 3172 3172 3172 3171 3171 3171 3171 3171 3171 3170 3170 3170 3170 3169 3169 3168 3168 3168 3168 3169 3168 3168 3168 3168 3168 3168 3168 3167 3167 3167 3167 3166 3166 3166 3166 3166 3165 3165 3164 3164 3164 3163 3162 3163 3163 3162 3161 3161 3162 3162 3162 3162 3163 3162 3161 3161 3160 3160 3160 3158 3158 3158 3158 3156 3152 3152 3155 3155 3155 3154 3153 3152 3150 3150 3150 3149
3169 3169 3169 3169 3170 3170 3170 3170 3170 3170 3170 3170 3170 3170 3170 3170 3170 3170 3170 3170 3169 3169 3169 3169 3168 3168 3167 3167 3167 3167 3167 3169 3168 3167 3167 3167 3166 3167 3166 3166 3165 3165 3165 3165 3165 3165 3164 3164 3164 3164 3163 3162 3163 3163 3162 3162 3161 3159 3158 3160 3160 3160 3159 3159 3160 3159 3159 3158 3158 3158 3157 3156 3156 3155 3155 3153 3150 3150 3152 3152 3152 3151 3150 3149 3148 3147 3147 3147
3167 3167 3168 3168 3168 3168 3168 3168 3168 3168 3169 3169 3169 3169 3169 3169 3169 3169 3169 3169 3168 3168 3167 3167 3167 3166 3166 3165 3165 3165 3165 3168 3167 3165 3165 3165 3165 3165 3164 3164 3164 3164 3164 3164 3163 3163 3163 3162 3162 3162 3161 3161 3161 3161 3161 3161 3161 3158 3156 3157 3158 3158 3158 3158 3158 3157 3156 3156 3155 3155 3154 3154 3154 3152 3151 3149 3148 3150 3149 3148 3148 3148 3148 3147 3146 3145 3144 3144
3165 3165 3165 3166 3166 3166 3166 3166 3166 3167 3167 3167 3167 3167 3167 3167 3167 3167 3167 3167 3167 3166 3166 3166 3165 3165 3164 3163 3163 3163 3163 3166 3166 3164 3164 3164 3163 3163 3163 3163 3163 3162 3163 3162 3162 3162 3161 3161 3161 3160 3159 3159 3160 3160 3160 3159 3158 3157 3155 3155 3155 3155 3155 3155 3155 3154 3153 3153 3153 3152 3151 3152 3153 3150 3147 3146 3148 3149 3147 3146 3146 3145 3145 3144 3143 3142 3141 3141
3163 3163 3163 3163 3164 3164 3164 3164 3164 3165 3165 3165 3165 3165 3165 3166 3166 3166 3166 3165 3165 3165 3164 3164 3163 3163 3162 3162 3161 3160 3162 3164 3164 3163 3163 3162 3162 3161 3161 3161 3161 3161 3161 3160 3160 3160 3159 3160 3159 3158 3158 3158 3158 3158 3158 3157 3156 3155 3154 3153 3153 3152 3152 3153 3152 3151 3151 3150 3150 3148 3147 3149 3150 3148 3145 3146 3147 3146 3144 3143 3143 3142 3142 3141 3141 3140 3139 3138
3160 3160 3161 3161 3161 3161 3162 3162 3162 3162 3163 3163 3163 3163 3163 3164 3164 3164 3163 3163 3163 3163 3162 3162 3162 3161 3160 3160 3159 3158 3160 3162 3161 3161 3161 3160 3160 3160 3159 3159 3159 3158 3158 3158 3158 3158 3158 3158 3157 3156 3156 3156 3156 3156 3156 3155 3154 3153 3152 3151 3151 3150 3150 3150 3149 3149 3149 3147 3147 3145 3144 3146 3147 3145 3143 3144 3145 3142 3141 3141 3140 3139 3138 3139 3138 3137 3137 3136
3158 3158 3158 3158 3159 3159 3159 3160 3160 3160 3160 3160 3161 3161 3161 3161 3161 3161 3161 3161 3161 3161 3160 3160 3159 3159 3158 3158 3157 3157 3159 3159 3159 3159 3159 3159 3158 3158 3157 3157 3157 3157 3156 3156 3156 3156 3156 3156 3155 3155 3155 3154 3153 3154 3153 3152 3151 3150 3149 3148 3148 3148 3147 3148 3147 3146 3145 3143 3143 3142 3141 3143 3145 3143 3141 3142 3141 3140 3139 3138 3138 3137 3135 3135 3135 3135 3134 3134
3155 3155 3155 3156 3156 3156 3157 3157 3157 3157 3158 3158 3158 3158 3159 3159 3159 3159 3159 3159 3159 3158 3158 3157 3157 3156 3156 3155 3155 3156 3156 3156 3156 3156 3156 3156 3156 3156 3155 3155 3155 3154 3154 3154 3153 3154 3154 3153 3153 3153 3153 3152 3151 3151 3150 3150 3149 3147 3146 3145 3145 3145 3144 3145 3144 3143 3142 3140 3140 3139 3138 3140 3141 3140 3139 3138 3138 3137 3135 3134 3134 3134 3133 3132 3132 3132 3131 3131
3153 3153 3153 3153 3153 3154 3154 3154 3154 3155 3155 3155 3155 3156 3156 3156 3156 3156 3156 3156 3156 3156 3155 3155 3154 3154 3153 3152 3153 3153 3153 3153 3153 3154 3154 3154 3153 3153 3153 3152 3152 3152 3151 3151 3151 3151 3152 3151 3150 3150 3151 3150 3150 3149 3148 3148 3147 3145 3145 3143 3142 3141 3140 3143 3142 3140 3140 3138 3138 3139 3136 3137 3139 3138 3137 3136 3135 3134 3133 3132 3131 3131 3131 3130 3129 3128 3127 3127
3150 3150 3151 3151 3151 3151 3151 3151 3152 3152 3152 3152 3153 3153 3153 3153 3153 3153 3153 3153 3153 3153 3153 3153 3152 3151 3150 3150 3151 3150 3150 3151 3150 3151 3151 3151 3151 3151 3150 3150 3149 3149 3148 3148 3148 3148 3148 3148 3148 3148 3149 3148 3148 3148 3145 3145 3145 3143 3143 3141 3141 3139 3137 3140 3140 3139 3139 3137 3136 3137 3134 3133 3136 3136 3136 3135 3134 3132 3131 3130 3129 3128 3128 3127 3126 3125 3124 3123
3148 3148 3148 3148 3148 3149 3149 3149 3149 3149 3149 3149 3150 3150 3150 3150 3150 3150 3151 3151 3151 3151 3150 3150 3150 3149 3147 3148 3149 3148 3148 3148 3148 3148 3148 3148 3148 3148 3148 3147 3147 3146 3146 3146 3146 3146 3146 3146 3145 3146 3146 3147 3147 3145 3143 3143 3143 3143 3141 3139 3140 3138 3136 3138 3139 3138 3138 3135 3134 3134 3131 3130 3132 3133 3133 3133 3132 3130 3128 3127 3127 3126 3125 3124 3123 3122 3121 3120
3145 3145 3146 3146 3146 3146 3146 3146 3146 3146 3146 3146 3147 3147 3147 3147 3147 3147 3147 3148 3148 3148 3147 3147 3147 3146 3145 3146 3146 3145 3145 3145 3145 3145 3145 3145 3145 3145 3145 3144 3144 3144 3144 3143 3144 3143 3143 3143 3143 3144 3144 3146 3146 3143 3142 3141 3140 3142 3141 3138 3138 3138 3136 3137 3138 3138 3138 3135 3132 3130 3128 3127 3129 3129 3129 3128 3128 3126 3125 3124 3123 3123 3122 3121 3120 3119 3118 3116
3142 3142 3142 3143 3143 3143 3143 3143 3143 3143 3143 3143 3144 3143 3144 3144 3144 3144 3144 3144 3144 3144 3144 3144 3144 3143 3142 3143 3143 3142 3143 3143 3143 3142 3142 3142 3142 3141 3142 3141 3141 3141 3141 3141 3141 3141 3141 3141 3140 3141 3142 3143 3144 3142 3140 3139 3138 3139 3139 3138 3137 3137 3136 3136 3137 3137 3137 3135 3132 3129 3125 3123 3125 3125 3125 3124 3124 3123 3121 3120 3120 3119 3119 3118 3117 3115 3114 3111
3138 3139 3139 3140 3140 3140 3140 3140 3140 3140 3140 3140 3140 3140 3140 3140 3140 3141 3140 3141 3141 3141 3141 3140 3141 3140 3139 3140 3140 3139 3140 3140 3140 3140 3140 3140 3139 3139 3139 3139 3139 3139 3138 3139 3139 3138 3139 3138 3136 3138 3139 3140 3141 3140 3138 3137 3137 3138 3138 3137 3135 3135 3135 3134 3134 3134 3134 3132 3131 3128 3124 3122 3123 3123 3122 3122 3122 3120 3118 3118 3116 3116 3115 3115 3114 3112 3109 3106
3136 3136 3136 3137 3137 3137 3137 3137 3137 3137 3137 3137 3137 3137 3137 3137 3137 3137 3137 3138 3138 3139 3138 3137 3138 3138 3137 3137 3137 3137 3137 3137 3137 3137 3138 3137 3136 3136 3136 3135 3136 3136 3135 3135 3135 3135 3136 3135 3133 3134 3136 3137 3138 3137 3135 3134 3135 3136 3135 3134 3133 3132 3131 3131 3130 3130 3131 3128 3126 3126 3123 3121 3121 3120 3119 3119 3118 3116 3115 3114 3113 3113 3113 3112 3110 3108 3105 3103
3133 3133 3134 3134 3134 3134 3135 3135 3135 3135 3135 3134 3134 3134 3134 3134 3134 3133 3133 3135 3135 3136 3135 3134 3134 3134 3135 3134 3133 3134 3134 3134 3133 3133 3134 3134 3133 3133 3132 3132 3132 3132 3131 3132 3132 3131 3132 3131 3129 3131 3134 3135 3136 3135 3134 3134 3134 3133 3132 3131 3130 3129 3128 3128 3128 3127 3128 3124 3122 3122 3120 3118 3117 3116 3116 3115 3114 3112 3111 3110 3110 3111 3110 3108 3107 3104 3102 3101
3130 3131 3131 3131 3131 3131 3131 3132 3132 3132 3132 3132 3132 3132 3131 3131 3131 3130 3129 3130 3131 3132 3132 3132 3131 3130 3131 3130 3129 3131 3131 3130 3129 3130 3131 3130 3130 3129 3127 3128 3128 3128 3129 3129 3128 3128 3128 3128 3127 3129 3131 3132 3133 3133 3133 3133 3132 3131 3130 3129 3128 3127 3125 3125 3125 3125 3125 3121 3119 3119 3117 3115 3115 3113 3112 3111 3110 3109 3108 3108 3109 3109 3107 3105 3104 3102 3100 3099
3127 3128 3128 3128 3128 3128 3129 3128 3129 3129 3129 3129 3129 3129 3129 3128 3128 3127 3126 3125 3127 3129 3128 3128 3128 3126 3128 3126 3124 3128 3127 3126 3126 3125 3128 3127 3125 3126 3123 3124 3125 3125 3126 3126 3125 3126 3125 3125 3126 3126 3127 3129 3129 3130 3130 3130 3129 3128 3128 3126 3125 3124 3123 3122 3123 3123 3122 3119 3117 3116 3114 3112 3112 3111 3109 3109 3108 3108 3108 3107 3107 3107 3105 3104 3102 3100 3099 3098
3124 3125 3125 3125 3125 3125 3125 3125 3125 3126 3126 3127 3127 3127 3127 3126 3126 3125 3123 3121 3122 3125 3124 3124 3124 3123 3124 3122 3121 3124 3122 3123 3123 3121 3123 3123 3121 3123 3121 3120 3122 3123 3124 3122 3122 3124 3122 3123 3125 3124 3124 3125 3125 3126 3127 3126 3126 3125 3125 3124 3122 3122 3122 3120 3121 3121 3120 3118 3115 3113 3110 3109 3110 3108 3107 3108 3107 3108 3107 3104 3104 3104 3103 3102 3100 3098 3097 3096
3121 3122 3122 3122 3122 3122 3122 3122 3122 3123 3124 3124 3124 3124 3124 3124 3124 3123 3122 3119 3117 3120 3121 3121 3120 3119 3119 3118 3118 3120 3118 3118 3118 3116 3119 3119 3117 3119 3119 3118 3119 3121 3121 3121 3120 3120 3120 3122 3124 3123 3123 3123 3123 3123 3124 3123 3122 3122 3122 3122 3120 3120 3121 3119 3119 3117 3116 3116 3113 3111 3107 3105 3107 3107 3106 3107 3107 3107 3104 3101 3101 3101 3099 3098 3096 3095 3094 3094
3118 3118 3119 3119 3119 3119 3119 3119 3119 3120 3121 3121 3121 3122 3122 3122 3122 3121 3120 3117 3112 3114 3117 3117 3116 3115 3115 3114 3114 3115 3114 3113 3113 3112 3115 3116 3115 3115 3116 3117 3116 3117 3119 3119 3119 3118 3118 3119 3121 3121 3121 3121 3121 3120 3121 3120 3120 3119 3119 3120 3119 3118 3118 3117 3116 3114 3112 3112 3111 3111 3107 3101 3103 3105 3104 3104 3104 3104 3100 3098 3099 3098 3096 3095 3094 3093 3093 3092
3114 3115 3115 3116 3116 3116 3116 3116 3117 3118 3117 3118 3119 3119 3120 3120 3120 3120 3119 3116 3110 3109 3112 3112 3112 3111 3110 3111 3110 3111 3111 3110 3110 3110 3111 3112 3112 3112 3113 3114 3114 3115 3116 3117 3117 3116 3116 3117 3118 3118 3119 3119 3119 3119 3119 3119 3118 3117 3117 3118 3118 3117 3116 3115 3114 3112 3110 3109 3109 3111 3109 3100 3096 3100 3100 3099 3100 3099 3097 3096 3096 3094 3094 3093 3093 3092 3091 3090
3111 3111 3112 3112 3113 3113 3113 3113 3114 3115 3114 3115 3116 3117 3118 3117 3118 3119 3118 3116 3109 3106 3108 3109 3109 3108 3108 3109 3108 3108 3109 3107 3108 3108 3109 3109 3110 3110 3111 3111 3112 3113 3114 3114 3114 3114 3114 3115 3116 3116 3117 3117 3117 3117 3117 3117 3116 3115 3115 3116 3116 3115 3114 3113 3112 3111 3108 3107 3105 3106 3109 3100 3092 3094 3096 3095 3096 3095 3093 3094 3093 3092 3093 3093 3092 3091 3090 3089
3108 3108 3108 3109 3109 3110 3110 3110 3111 3111 3111 3112 3114 3115 3115 3115 3117 3117 3119 3117 3108 3104 3106 3107 3107 3107 3107 3108 3107 3107 3107 3107 3107 3107 3107 3108 3108 3109 3110 3110 3111 3111 3111 3112 3112 3112 3112 3113 3114 3114 3115 3114 3115 3115 3116 3116 3115 3113 3114 3114 3113 3113 3113 3111 3110 3108 3107 3105 3101 3101 3105 3100 3092 3091 3092 3093 3094 3092 3091 3092 3091 3091 3092 3092 3091 3090 3089 3088
3104 3104 3105 3105 3105 3107 3107 3108 3108 3108 3109 3110 3111 3112 3113 3114 3115 3116 3119 3116 3105 3102 3105 3105 3106 3107 3106 3106 3106 3106 3106 3106 3106 3106 3107 3107 3107 3108 3109 3109 3110 3110 3110 3110 3110 3111 3110 3110 3111 3111 3111 3112 3112 3113 3113 3113 3113 3112 3111 3111 3111 3110 3110 3109 3108 3106 3106 3104 3099 3099 3101 3098 3092 3090 3091 3091 3091 3091 3090 3090 3091 3091 3091 3090 3089 3088 3088 3088
3100 3100 3101 3102 3102 3103 3104 3104 3105 3105 3106 3107 3109 3110 3110 3111 3112 3114 3115 3109 3102 3102 3103 3103 3105 3105 3104 3105 3105 3105 3105 3105 3106 3106 3106 3106 3106 3107 3107 3108 3109 3109 3109 3108 3108 3109 3108 3108 3109 3109 3109 3109 3109 3110 3110 3110 3110 3109 3109 3108 3108 3107 3106 3107 3106 3105 3106 3102 3097 3096 3097 3097 3094 3090 3090 3091 3091 3090 3089 3089 3090 3090 3089 3088 3087 3087 3087 3087
3096 3097 3098 3098 3099 3100 3100 3101 3102 3102 3103 3104 3106 3107 3108 3108 3110 3110 3105 3101 3101 3101 3100 3101 3102 3102 3102 3103 3103 3103 3104 3104 3105 3105 3105 3105 3105 3106 3106 3107 3107 3107 3107 3106 3106 3106 3105 3105 3106 3107 3107 3107 3107 3107 3107 3107 3107 3107 3107 3106 3105 3105 3104 3104 3104 3106 3105 3100 3096 3095 3095 3095 3093 3089 3089 3090 3090 3088 3086 3087 3087 3087 3087 3086 3085 3085 3085 3085
3092 3093 3094 3095 3096 3097 3097 3098 3099 3099 3100 3101 3103 3104 3104 3105 3104 3100 3098 3099 3101 3099 3097 3099 3099 3100 3101 3101 3101 3102 3102 3103 3103 3103 3103 3103 3103 3104 3105 3105 3105 3105 3105 3104 3105 3104 3103 3103 3104 3104 3105 3105 3105 3104 3104 3105 3105 3105 3105 3105 3105 3105 3104 3104 3103 3103 3102 3098 3095 3095 3095 3094 3091 3088 3088 3088 3088 3085 3082 3083 3085 3085 3084 3084 3083 3083 3083 3083
3088 3089 3090 3091 3092 3093 3094 3095 3096 3096 3097 3098 3100 3100 3101 3100 3095 3092 3095 3099 3099 3097 3096 3097 3097 3098 3099 3099 3100 3100 3100 3101 3101 3101 3101 3102 3102 3102 3102 3103 3103 3104 3103 3103 3103 3102 3100 3100 3101 3102 3102 3102 3102 3102 3102 3102 3102 3103 3104 3105 3105 3105 3106 3105 3102 3100 3098 3096 3095 3095 3094 3091 3087 3086 3085 3084 3085 3083 3081 3082 3083 3083 3083 3082 3081 3081 3081 3081
3085 3086 3086 3087 3089 3090 3091 3092 3093 3093 3095 3096 3097 3098 3097 3094 3089 3089 3092 3095 3096 3096 3096 3096 3096 3096 3097 3097 3098 3098 3098 3098 3098 3099 3099 3100 3100 3099 3100 3100 3101 3101 3101 3101 3101 3100 3099 3098 3098 3099 3099 3099 3100 3100 3101 3100 3100 3101 3101 3102 3103 3103 3104 3103 3100 3098 3096 3095 3094 3094 3093 3088 3085 3085 3084 3082 3083 3082 3081 3082 3081 3081 3080 3080 3080 3080 3079 3079
3081 3082 3083 3084 3085 3087 3088 3089 3089 3091 3092 3092 3094 3095 3092 3088 3087 3088 3090 3092 3094 3094 3094 3094 3094 3095 3095 3096 3096 3096 3097 3096 3096 3096 3097 3097 3097 3097 3097 3098 3098 3099 3099 3099 3099 3098 3097 3095 3095 3096 3097 3097 3098 3098 3098 3099 3099 3098 3098 3099 3099 3099 3101 3100 3098 3097 3096 3094 3092 3090 3088 3083 3082 3083 3082 3081 3080 3079 3080 3080 3079 3079 3078 3078 3078 3077 3077 3076
3078 3079 3080 3081 3082 3083 3084 3085 3086 3088 3088 3089 3091 3089 3084 3084 3086 3087 3088 3090 3091 3092 3092 3093 3093 3093 3093 3093 3094 3094 3094 3094 3094 3094 3094 3093 3094 3094 3094 3096 3096 3096 3096 3097 3097 3097 3095 3093 3093 3093 3094 3094 3095 3095 3096 3097 3097 3097 3096 3096 3096 3097 3098 3098 3096 3095 3095 3093 3089 3085 3081 3079 3080 3079 3078 3077 3077 3076 3076 3076 3076 3076 3076 3075 3075 3074 3073 3072
3073 3075 3076 3077 3079 3080 3081 3082 3083 3084 3085 3086 3085 3081 3078 3080 3083 3085 3086 3087 3088 3089 3090 3090 3090 3090 3090 3090 3091 3091 3092 3092 3092 3092 3091 3091 3091 3090 3091 3093 3093 3093 3093 3094 3094 3094 3093 3091 3090 3091 3091 3092 3092 3092 3093 3094 3094 3094 3094 3093 3094 3094 3095 3095 3094 3093 3093 3090 3085 3082 3080 3077 3078 3077 3074 3074 3074 3073 3073 3073 3073 3073 3072 3072 3071 3070 3070 3069
3069 3070 3072 3074 3075 3076 3077 3078 3079 3081 3081 3080 3078 3075 3075 3076 3079 3082 3084 3085 3086 3087 3087 3087 3087 3087 3087 3088 3089 3089 3089 3089 3089 3089 3089 3090 3089 3087 3088 3089 3089 3089 3090 3090 3091 3091 3091 3088 3087 3087 3088 3089 3089 3089 3089 3090 3091 3091 3091 3092 3092 3092 3091 3092 3092 3091 3090 3087 3082 3080 3079 3076 3075 3075 3073 3072 3072 3071 3070 3071 3071 3070 3069 3069 3067 3067 3067 3067
3065 3066 3067 3069 3071 3072 3073 3075 3076 3077 3077 3075 3072 3072 3072 3073 3075 3079 3080 3081 3083 3083 3083 3083 3084 3084 3085 3085 3086 3087 3086 3086 3087 3087 3087 3087 3087 3086 3086 3086 3086 3086 3087 3087 3088 3088 3089 3087 3085 3084 3085 3085 3086 3086 3086 3087 3088 3088 3088 3089 3090 3089 3089 3089 3088 3087 3086 3083 3080 3079 3077 3074 3073 3072 3070 3069 3069 3069 3069 3069 3069 3067 3066 3065 3064 3064 3064 3063
3060 3060 3062 3065 3067 3068 3070 3071 3072 3072 3071 3069 3069 3070 3070 3071 3073 3076 3077 3078 3078 3078 3078 3079 3080 3081 3081 3082 3083 3084 3083 3083 3084 3085 3084 3085 3085 3084 3084 3084 3084 3084 3084 3085 3085 3085 3086 3086 3083 3081 3082 3082 3083 3084 3084 3085 3085 3085 3085 3086 3086 3086 3086 3085 3084 3082 3082 3080 3079 3077 3074 3071 3071 3070 3068 3067 3068 3068 3068 3067 3066 3065 3063 3063 3062 3062 3061 3060
3055 3055 3057 3060 3063 3064 3066 3066 3066 3066 3065 3064 3066 3067 3069 3070 3071 3072 3073 3074 3074 3074 3074 3075 3076 3077 3077 3078 3079 3080 3080 3080 3080 3081 3080 3081 3082 3082 3081 3081 3081 3082 3082 3082 3083 3082 3083 3082 3081 3080 3079 3078 3079 3081 3083 3083 3083 3082 3082 3083 3084 3084 3084 3083 3079 3078 3078 3076 3075 3074 3070 3067 3069 3068 3066 3066 3066 3066 3065 3064 3064 3063 3062 3061 3061 3060 3059 3057
3051 3051 3053 3057 3058 3060 3061 3061 3061 3061 3060 3059 3061 3064 3066 3067 3067 3068 3069 3069 3069 3070 3070 3071 3072 3073 3074 3075 3075 3076 3077 3076 3076 3076 3076 3077 3079 3079 3078 3078 3078 3078 3079 3079 3079 3079 3080 3080 3078 3077 3076 3076 3076 3077 3078 3078 3079 3080 3080 3080 3081 3081 3081 3079 3076 3075 3074 3072 3071 3070 3066 3064 3067 3067 3065 3065 3064 3063 3063 3062 3062 3061 3061 3060 3060 3059 3057 3055
3047 3048 3050 3052 3053 3056 3057 3056 3056 3055 3054 3055 3057 3060 3062 3062 3063 3064 3065 3065 3065 3065 3065 3066 3068 3069 3070 3071 3072 3073 3073 3072 3071 3072 3072 3073 3075 3075 3074 3074 3074 3075 3076 3076 3076 3076 3077 3076 3075 3074 3074 3073 3072 3073 3073 3073 3074 3076 3076 3076 3077 3077 3076 3075 3073 3072 3071 3068 3068 3067 3062 3061 3064 3064 3063 3063 3062 3060 3059 3058 3057 3056 3056 3057 3056 3054 3053 3051
3044 3045 3046 3047 3048 3050 3050 3050 3050 3050 3050 3052 3053 3054 3056 3057 3058 3059 3059 3061 3061 3061 3061 3061 3063 3065 3066 3067 3068 3068 3069 3069 3068 3068 3069 3070 3070 3070 3070 3071 3071 3072 3072 3073 3073 3073 3073 3072 3072 3072 3073 3071 3070 3070 3070 3070 3070 3071 3072 3073 3072 3072 3072 3070 3069 3070 3067 3063 3065 3064 3058 3058 3061 3061 3060 3060 3058 3057 3056 3055 3054 3052 3051 3050 3049 3048 3047 3046
3041 3040 3041 3043 3043 3044 3043 3045 3047 3047 3047 3048 3048 3049 3051 3051 3052 3053 3054 3056 3057 3057 3058 3058 3059 3061 3062 3063 3063 3063 3065 3065 3064 3064 3065 3066 3066 3066 3067 3067 3068 3068 3069 3069 3069 3070 3070 3069 3069 3070 3071 3071 3070 3068 3067 3067 3068 3069 3069 3070 3070 3069 3069 3067 3067 3066 3063 3061 3062 3061 3055 3054 3057 3058 3058 3058 3056 3054 3053 3052 3051 3049 3047 3045 3044 3042 3041 3040
3036 3035 3036 3038 3038 3037 3038 3040 3042 3042 3043 3044 3044 3044 3045 3045 3047 3049 3050 3051 3052 3053 3054 3054 3055 3057 3057 3058 3058 3058 3060 3061 3061 3062 3062 3062 3063 3063 3063 3063 3064 3065 3065 3065 3066 3067 3066 3066 3066 3066 3067 3067 3066 3066 3066 3066 3066 3066 3066 3066 3066 3065 3065 3065 3063 3061 3060 3060 3059 3057 3054 3052 3053 3053 3052 3053 3052 3051 3051 3049 3047 3045 3043 3041 3040 3038 3036 3035
3030 3029 3030 3032 3032 3031 3032 3034 3035 3036 3038 3040 3040 3040 3040 3041 3043 3045 3045 3047 3048 3050 3050 3050 3051 3052 3053 3053 3054 3054 3056 3057 3058 3058 3058 3059 3059 3060 3060 3060 3060 3061 3061 3061 3062 3063 3062 3061 3062 3062 3062 3062 3063 3063 3063 3064 3063 3063 3063 3061 3060 3060 3060 3060 3057 3056 3059 3058 3052 3051 3052 3049 3048 3048 3047 3047 3047 3046 3045 3044 3042 3041 3039 3037 3035 3033 3032 3030
3024 3024 3025 3026 3026 3025 3026 3028 3030 3031 3034 3036 3036 3036 3037 3038 3040 3041 3042 3043 3044 3045 3046 3045 3046 3047 3048 3050 3050 3051 3052 3053 3054 3054 3055 3056 3056 3056 3056 3056 3056 3057 3057 3058 3058 3059 3059 3057 3057 3059 3059 3059 3059 3059 3060 3061 3060 3060 3059 3056 3055 3054 3053 3053 3052 3053 3056 3053 3047 3047 3049 3045 3043 3044 3043 3043 3042 3040 3039 3038 3036 3035 3034 3032 3030 3028 3027 3026
3019 3019 3020 3020 3019 3020 3022 3024 3026 3027 3029 3031 3031 3031 3033 3034 3036 3038 3039 3039 3040 3041 3041 3041 3042 3044 3044 3045 3046 3047 3048 3049 3049 3050 3051 3051 3051 3052 3053 3053 3053 3053 3053 3054 3054 3056 3055 3054 3054 3055 3054 3054 3055 3055 3056 3057 3057 3055 3054 3052 3050 3048 3046 3048 3048 3048 3049 3047 3044 3045 3043 3040 3039 3040 3039 3038 3037 3035 3033 3031 3030 3029 3028 3026 3025 3023 3023 3022
3013 3014 3015 3015 3014 3016 3018 3020 3022 3023 3024 3026 3026 3026 3028 3030 3033 3035 3036 3035 3035 3036 3037 3038 3039 3040 3040 3041 3043 3043 3044 3044 3045 3046 3047 3048 3048 3049 3049 3050 3050 3050 3050 3050 3051 3052 3052 3051 3051 3051 3050 3050 3050 3051 3052 3054 3053 3051 3048 3045 3043 3042 3042 3043 3042 3042 3042 3041 3040 3040 3038 3035 3035 3036 3034 3033 3032 3030 3028 3026 3025 3025 3023 3021 3020 3020 3020 3018
3008 3010 3011 3011 3011 3013 3014 3015 3018 3018 3019 3020 3020 3021 3024 3025 3028 3031 3032 3032 3032 3032 3033 3034 3035 3036 3037 3037 3039 3039 3039 3041 3042 3043 3044 3045 3045 3046 3046 3046 3047 3046 3046 3047 3047 3048 3049 3048 3048 3049 3048 3046 3046 3047 3048 3049 3049 3047 3041 3036 3035 3037 3037 3036 3036 3038 3038 3035 3034 3034 3031 3030 3031 3032 3030 3028 3028 3026 3024 3022 3021 3020 3018 3017 3017 3017 3016 3014
3004 3006 3007 3007 3007 3009 3010 3012 3013 3013 3013 3014 3016 3019 3021 3021 3024 3027 3027 3027 3028 3029 3030 3030 3031 3032 3033 3034 3035 3035 3035 3037 3039 3040 3041 3042 3042 3042 3042 3043 3043 3043 3043 3043 3043 3044 3045 3044 3044 3046 3045 3042 3043 3044 3044 3046 3046 3038 3030 3028 3031 3033 3031 3030 3031 3033 3032 3031 3029 3027 3026 3026 3027 3027 3025 3023 3023 3022 3021 3020 3018 3016 3014 3012 3012 3013 3012 3010